User: anonymous   Login
Location: Radford
(37.1320°N, 80.5770°W)
Time: 10:18:28
(UTC-05:00)
Language:

Okean 1-7 - Orbit

View from above orbital plane
View from above orbital plane
View from above satellite
View from above satellite

Ground track
Ground track

The orbit data is extracted from the following two-line orbital elements,

1 23317U 94066A   15057.50645295  .00001453  00000-0  16172-3 0  9998
2 23317 082.5402 189.3572 0019301 339.7700 126.6004 14.86360355100873
Epoch (UTC): 26 February 2015 12:09:17
Eccentricity: 0.0019301
inclination: 82.5402°
perigee height: 596 km
apogee height: 623 km
right ascension of ascending node: 189.3572°
argument of perigee: 339.7700°
revolutions per day: 14.86360355
mean anomaly at epoch: 126.6004°
orbit number at epoch: 10087

The dashed part of the orbit path shows where the satellite is in the earth's shadow,  

DLR